TimePST,TemperatureF,Dew PointF,Humidity,Sea Level PressureIn,VisibilityMPH,Wind Direction,Wind SpeedMPH,Gust SpeedMPH,PrecipitationIn,Events,Conditions,WindDirDegrees,DateUTC
12:53 AM,37.9,35.1,89,30.33,10.0,SSE,5.8,-,N/A,,Partly Cloudy,150,2012-11-22 08:53:00
1:53 AM,37.9,34.0,86,30.34,10.0,SE,5.8,-,N/A,,Partly Cloudy,140,2012-11-22 09:53:00
2:53 AM,39.0,34.0,82,30.35,10.0,ESE,4.6,-,N/A,,Partly Cloudy,120,2012-11-22 10:53:00
3:53 AM,39.9,34.0,79,30.37,10.0,SE,4.6,-,N/A,,Partly Cloudy,130,2012-11-22 11:53:00
4:53 AM,37.9,33.1,83,30.38,10.0,SSE,4.6,-,N/A,,Mostly Cloudy,150,2012-11-22 12:53:00
5:01 AM,37.4,32.0,81,30.35,10.0,SSE,5.8,-,N/A,,Mostly Cloudy,150,2012-11-22 13:01:00
5:53 AM,37.0,32.0,82,30.39,10.0,SSE,5.8,-,N/A,,Mostly Cloudy,150,2012-11-22 13:53:00
6:53 AM,39.9,33.1,77,30.38,10.0,ESE,9.2,-,N/A,,Mostly Cloudy,120,2012-11-22 14:53:00
7:53 AM,37.9,32.0,79,30.38,10.0,Calm,Calm,-,N/A,,Mostly Cloudy,0,2012-11-22 15:53:00
8:53 AM,41.0,34.0,76,30.38,10.0,Calm,Calm,-,N/A,,Overcast,0,2012-11-22 16:53:00
9:53 AM,42.1,33.1,70,30.38,10.0,Calm,Calm,-,N/A,,Overcast,0,2012-11-22 17:53:00
10:53 AM,42.1,34.0,73,30.38,10.0,ESE,4.6,-,N/A,,Overcast,120,2012-11-22 18:53:00
11:53 AM,44.1,34.0,68,30.36,10.0,Calm,Calm,-,N/A,,Overcast,0,2012-11-22 19:53:00
12:53 PM,46.9,35.1,63,30.33,10.0,ESE,6.9,-,N/A,,Overcast,110,2012-11-22 20:53:00
1:53 PM,48.0,36.0,63,30.32,10.0,Calm,Calm,-,N/A,,Overcast,0,2012-11-22 21:53:00
2:53 PM,45.0,37.0,74,30.33,10.0,SSW,3.5,-,N/A,,Overcast,200,2012-11-22 22:53:00
3:53 PM,46.0,37.9,73,30.32,10.0,Calm,Calm,-,N/A,,Overcast,0,2012-11-22 23:53:00
4:53 PM,45.0,37.9,76,30.31,10.0,Calm,Calm,-,N/A,,Overcast,0,2012-11-23 00:53:00
5:53 PM,46.9,35.1,63,30.28,10.0,ESE,10.4,-,N/A,,Overcast,120,2012-11-23 01:53:00
6:53 PM,45.0,37.0,74,30.27,10.0,Calm,Calm,-,N/A,,Mostly Cloudy,0,2012-11-23 02:53:00
7:53 PM,44.1,37.9,79,30.25,10.0,Calm,Calm,-,N/A,,Mostly Cloudy,0,2012-11-23 03:53:00
8:53 PM,46.0,35.1,66,30.23,10.0,SSE,5.8,-,N/A,,Mostly Cloudy,160,2012-11-23 04:53:00
9:53 PM,45.0,39.0,80,30.26,10.0,SSW,3.5,-,N/A,,Overcast,210,2012-11-23 05:53:00
10:53 PM,45.0,39.0,80,30.25,10.0,Calm,Calm,-,N/A,,Overcast,0,2012-11-23 06:53:00
11:53 PM,44.1,39.0,82,30.26,10.0,South,5.8,-,0.00,Rain,Light Rain,180,2012-11-23 07:53:00